カタリナ彗星

C/2006 V1 ( Catalina )

English version
Home page
Total 6,336 html files since Dec. 4, 1995
Updated on May 25, 2008

---------------------------------------------------------------------

・ プロフィール

発見日 2006年11月11日
発見光度 18.5等
発見者 Catalina Sky Survey

・ 写真集

・ 軌道要素

Epoch 2007 Dec. 6.0 TT = JDT 2454440.5
T 2007 Nov. 26.54598 TT                                 MPC
q   2.6747715            (2000.0)            P               Q
z  +0.0038330      Peri.  253.41389     -0.59756071     +0.77315270
 +/-0.0000019      Node   335.72190     -0.38148328     -0.50723939
e   0.9897477      Incl.   31.11933     -0.70526003     -0.38071395

・ 星図

・ 光度変化

        m1 = 8.2 + 5 logΔ + 10.0 log r

---------------------------------------------------------------------

軌道要素はM.P.E.C. 2008-F27に掲載されたものです。
星図は StellaNavigator Ver.2.0 for Windows (アストロアーツ 編著 / アスキー出版局刊) で作成したものです。
光度グラフはComet for Windowsで作成したものです。

---------------------------------------------------------------------

Copyright(C) 1995-2008 Seiichi Yoshida (comet@aerith.net). All rights reserved.